Location: Houston
(29.7631°N, 95.3631°W)
Time: 17:28:51
(UTC-05:00)

PicSat - Visible Passes

Search period start: 24 May 2019 00:00
Search period end: 03 June 2019 00:00
Orbit: 487 x 500 km, 97.5° (Epoch: 23 May)

Date Brightness Start Highest point End Pass type
(mag) Time Alt. Az. Time Alt. Az. Time Alt. Az.
24 May ? 23:41:24 12° NW 23:41:24 12° NW 23:41:44 10° NW visible
25 May ? 23:19:33 17° NNW 23:19:33 17° NNW 23:20:32 10° NNW visible
26 May ? 22:57:42 20° N 22:57:42 20° N 22:58:57 10° N visible
27 May ? 22:35:51 17° NNE 22:35:51 17° NNE 22:37:00 10° NNE visible
28 May ? 22:13:59 11° NE 22:13:59 11° NE 22:14:26 10° NE visible
28 May ? 23:48:32 11° NW 23:48:32 11° NW 23:48:45 10° NW visible
29 May ? 23:26:41 18° NNW 23:26:41 18° NNW 23:27:42 10° NNW visible
30 May ? 23:04:49 22° N 23:04:49 22° N 23:06:14 10° N visible
31 May ? 22:42:58 20° NNE 22:42:58 20° NNE 22:44:24 10° N visible
01 Jun ? 22:21:06 14° NE 22:21:06 14° NE 22:22:05 10° NNE visible
01 Jun ? 23:55:39 10° NW 23:55:39 10° NW 23:55:40 10° NW visible
02 Jun ? 23:33:47 17° NW 23:33:47 17° NW 23:34:47 10° NNW visible
